Weather in Motala

Sweden     58°32′16″N   15°02′45″E
temp.,
°C
wind,
m/s
gust,
m/s
humid.,
%
clouds,
%
prec.,
mm/h
press.,
hPa
HPBL,
m
28 january, thu
thu2801:00−3ene4685100 0.1 1004274
04:00−4ne5885100 0.4 1003427
07:00−4nne5991100 1.3 1002467
10:00−4nne61085100 0.3 1002551
13:00−4nne71087100 1.0 1001578
16:00−4n71182100 0.3 1001613
19:00−4n71183100 0.3 1002597
22:00−4nne61185100 0.1 1002581
29 january, fri
fri2901:00−6n5879100 0.0 1003397
04:00−6n5781100 0.0 1002339
07:00−7nne468475 0.0 1002328
10:00−7nne478131 0.0 1002303
13:00−5nne467216 0.0 1001347
16:00−6nne46750 0.0 1001324
19:00−7nne35790 0.0 1002289
22:00−7n35770 0.0 1001322
30 january, sat
sat3001:00−6nnw477141 0.0 1001414
04:00−6nnw5871100 0.0 1000470
07:00−6nw587297 0.0 999390
10:00−5nw697227 0.0 998495
13:00−4wnw795923 0.0 998528
16:00−4nw7105919 0.0 997514
19:00−4nw576310 0.0 997372
22:00−4wnw57660 0.0 997341
31 january, sun
sun3101:00−4wnw47680 0.0 996304
04:00−4wnw467133 0.0 995255
07:00−4wnw467524 0.0 995221
10:00−4w46710 0.0 995359
13:00−3w34680 0.0 995419
16:00−3w34710 0.0 994262
19:00−4wnw34780 0.0 995216
22:00−4wnw23770 0.0 995186
1 february, mon
mon101:00−4nw247623 0.0 995197
04:00−5nw247922 0.0 995190
07:00−5nw237615 0.0 996149
10:00−4nw34720 0.0 997224
13:00−3wnw346836 0.0 998284
16:00−3w357434 0.0 998203
19:00−3w357017 0.0 1000217
22:00−3w47630 0.0 1001263